This is the latest recevied weather packets stored in our database for station/object WS2Z. If no packets are shown the sender has not sent any weather packets the latest 10 day(s).
| Time | Temp. | Humidity | Pressure | Rain* | Wind** | Luminosity | Snow |
|---|---|---|---|---|---|---|---|
| 1777895070 | 20° C | 93% | 1015.4 hPa | 0 mm | - | 41 W/m² | - |
| 1777894766 | 20° C | 94% | 1015.3 hPa | 0 mm | - | 41 W/m² | - |
| 1777894463 | 20° C | 94% | 1015.1 hPa | 0 mm | - | 39 W/m² | - |
| 1777894161 | 20° C | 93% | 1014.9 hPa | 0 mm | - | 28 W/m² | - |
| 1777893858 | 20° C | 94% | 1014.9 hPa | 0 mm | - | 22 W/m² | - |
| 1777893554 | 20° C | 95% | 1014.9 hPa | 0 mm | - | 19 W/m² | - |
| 1777893250 | 20° C | 95% | 1014.5 hPa | 0 mm | - | 16 W/m² | - |
| 1777892947 | 20° C | 95% | 1014.3 hPa | 0 mm | - | 12 W/m² | - |
| 1777892644 | 20° C | 95% | 1014.2 hPa | 0 mm | - | 9 W/m² | - |
| 1777892339 | 20° C | 95% | 1014.2 hPa | 0 mm | - | 6 W/m² | - |
| 1777892035 | 20° C | 95% | 1014.2 hPa | 0 mm | - | 4 W/m² | - |
| 1777891733 | 20° C | 95% | 1014.1 hPa | 0 mm | - | 2 W/m² | - |
| 1777891429 | 20° C | 95% | 1014.2 hPa | 0 mm | - | 1 W/m² | - |
| 1777891125 | 19.44° C | 95% | 1014.1 hPa | 0 mm | - | 1 W/m² | - |
| 1777890820 | 19.44° C | 95% | 1014.3 hPa | 0 mm | - | 0 W/m² | - |
| 1777890516 | 20° C | 95% | 1014.1 hPa | 0 mm | - | 0 W/m² | - |
| 1777890212 | 20° C | 95% | 1014.3 hPa | 0 mm | - | 0 W/m² | - |
| 1777889908 | 20° C | 95% | 1014.3 hPa | 0 mm | - | 0 W/m² | - |
| 1777889606 | 20° C | 94% | 1014.4 hPa | 0 mm | - | 0 W/m² | - |
| 1777889304 | 20° C | 94% | 1014.2 hPa | 0 mm | - | 0 W/m² | - |
| 1777889001 | 20° C | 94% | 1014.2 hPa | 0 mm | - | 0 W/m² | - |
| 1777888698 | 20° C | 94% | 1014.1 hPa | 0 mm | - | 0 W/m² | - |
| 1777888394 | 20° C | 94% | 1014.3 hPa | 0 mm | - | 0 W/m² | - |
| 1777888090 | 20° C | 94% | 1014 hPa | 0 mm | - | 0 W/m² | - |
| 1777887788 | 20° C | 94% | 1014 hPa | 0 mm | - | 0 W/m² | - |
* Rain latest hour (hover to see other rain measurements)
** Current wind speed in m/s (hover to see current wind gust speed)